IU1JVO-13 Weather Reports


Display with metric or nautical units.
time (UTC)temp
F
wind
direction
speed
MPH
gust
MPH
rain 1hr
in
rain 24hr
in
rain mn
in
humidity
%
barometer
mb
20260505035706 48 255 0.0 6.0 0.09 0.70 0.18 89 1015.5
20260505035206 48 254 2.0 6.0 0.09 0.69 0.17 88 1015.6
20260505035152 48 254 2.0 6.0 0.09 0.69 0.17 88 1015.6
20260505034706 48 254 2.0 6.0 0.09 0.69 0.17 88 1015.6
20260505034207 48 255 2.0 5.0 0.09 0.67 0.15 89 1015.7
20260505034152 48 255 2.0 5.0 0.09 0.67 0.15 89 1015.7
20260505033707 48 254 2.0 5.0 0.09 0.66 0.14 90 1015.8
20260505033209 48 252 2.0 5.0 0.09 0.65 0.13 91 1015.8
20260505033152 48 252 2.0 5.0 0.09 0.65 0.13 91 1015.8
20260505032704 48 250 1.0 4.0 0.09 0.64 0.13 91 1015.8
20260505032203 48 250 1.0 3.0 0.09 0.64 0.12 91 1015.8
20260505032151 48 250 1.0 3.0 0.09 0.64 0.12 91 1015.8
20260505031702 48 251 1.0 3.0 0.09 0.63 0.11 91 1015.8
20260505031201 48 248 0.0 2.0 0.09 0.62 0.10 90 1015.9
20260505031151 48 248 0.0 2.0 0.09 0.62 0.10 90 1015.9
20260505030701 48 247 0.0 3.0 0.09 0.61 0.09 90 1015.9
20260505030201 48 250 0.0 3.0 0.09 0.61 0.09 89 1015.9
20260505030152 48 250 0.0 3.0 0.09 0.61 0.09 89 1015.9
20260505025701 48 254 0.0 3.0 0.09 0.61 0.09 89 1016.0
20260505025202 48 253 1.0 6.0 0.08 0.60 0.08 89 1015.9
20260505025152 48 253 1.0 6.0 0.08 0.60 0.08 89 1015.9
20260505024702 48 252 1.0 6.0 0.07 0.59 0.07 89 1015.9
20260505024432 48 254 1.0 6.0 0.06 0.58 0.06 88 1015.9
20260505024152 48 254 1.0 6.0 0.06 0.58 0.06 88 1015.9
20260505023701 48 254 1.0 7.0 0.06 0.57 0.06 88 1015.9
20260505023202 48 250 1.0 7.0 0.04 0.56 0.05 88 1015.9
20260505023152 48 250 1.0 7.0 0.04 0.56 0.05 88 1015.9
20260505022702 48 251 2.0 7.0 0.03 0.55 0.04 88 1015.8
20260505022202 48 255 2.0 7.0 0.02 0.54 0.02 87 1015.8
20260505022152 48 255 2.0 7.0 0.02 0.54 0.02 87 1015.8
20260505021704 49 250 2.0 6.0 0.02 0.54 0.02 87 1015.9
20260505021152 48 249 1.0 4.0 0.02 0.54 0.02 89 1015.8
20260505020928 49 248 1.0 4.0 0.01 0.53 0.01 89 1015.9
20260505020154 49 239 1.0 4.0 0.00 0.52 0.00 90 1015.9
20260505015656 49 231 0.0 1.0 0.00 0.52 0.00 91 1015.9
20260505015153 49 230 0.0 0.0 0.00 0.52 0.00 91 1015.8
20260505014925 49 230 0.0 0.0 0.00 0.52 0.00 90 1015.7
20260505014153 49 230 0.0 0.0 0.00 0.52 0.00 90 1015.8
20260505013656 49 230 0.0 0.0 0.00 0.52 0.00 90 1015.8
20260505013152 49 230 0.0 2.0 0.00 0.52 0.00 90 1015.7
20260505012656 49 230 0.0 5.0 0.00 0.52 0.00 90 1015.7
20260505012151 49 239 0.0 5.0 0.00 0.52 0.00 90 1015.8
20260505011656 49 250 1.0 5.0 0.00 0.52 0.00 90 1015.9
20260505011152 49 250 2.0 5.0 0.00 0.52 0.00 89 1016.0
20260505010656 49 249 1.0 3.0 0.00 0.52 0.00 90 1016.0
20260505010152 49 249 0.0 3.0 0.00 0.52 0.00 90 1016.1
20260505005656 49 249 0.0 3.0 0.00 0.52 0.00 90 1016.2
20260505005152 49 248 0.0 4.0 0.00 0.52 0.00 90 1016.3
20260505004656 49 247 0.0 4.0 0.00 0.52 0.00 90 1016.4
20260505004152 49 247 1.0 4.0 0.00 0.52 0.00 90 1016.7
20260505003656 49 246 1.0 4.0 0.00 0.52 0.00 89 1016.9
20260505003152 49 247 1.0 4.0 0.00 0.52 0.00 89 1016.9
20260505002657 49 250 1.0 5.0 0.00 0.52 0.00 89 1017.3
20260505002151 49 252 1.0 5.0 0.00 0.52 0.00 89 1017.4
20260505001655 49 252 2.0 5.0 0.00 0.52 0.00 90 1017.6
20260505001149 49 249 2.0 5.0 0.00 0.52 0.00 90 1017.6
20260505000656 49 248 1.0 4.0 0.00 0.52 0.00 90 1017.7
20260505000148 49 250 1.0 4.0 0.00 0.52 0.00 90 1017.8
20260504235655 49 252 2.0 4.0 0.00 0.52 0.00 90 1017.9
20260504235148 49 250 2.0 4.0 0.00 0.52 0.00 91 1017.9
20260504234653 49 247 1.0 4.0 0.00 0.52 0.00 91 1017.9
20260504234148 49 249 1.0 4.0 0.00 0.52 0.00 91 1018.0
20260504233923 49 246 1.0 4.0 0.00 0.52 0.00 91 1018.0
20260504233147 49 242 0.0 2.0 0.00 0.52 0.00 91 1018.1
20260504232652 49 239 0.0 2.0 0.00 0.52 0.00 92 1018.1
20260504232148 49 228 0.0 2.0 0.00 0.52 0.00 92 1018.2
20260504231919 49 217 0.0 1.0 0.00 0.52 0.00 92 1018.3
20260504231151 49 228 0.0 1.0 0.00 0.52 0.00 91 1018.3
20260504231147 49 229 0.0 1.0 0.00 0.52 0.00 91 1018.3
20260504230650 49 246 0.0 1.0 0.00 0.52 0.00 92 1018.4
20260504230147 49 250 0.0 1.0 0.00 0.52 0.00 91 1018.4
20260504225650 49 250 0.0 2.0 0.00 0.52 0.00 91 1018.4
20260504225148 49 251 0.0 2.0 0.00 0.52 0.00 91 1018.4
20260504224649 49 249 0.0 2.0 0.00 0.52 0.00 91 1018.5
20260504224147 49 246 0.0 2.0 0.00 0.52 0.00 92 1018.6
20260504223648 49 246 0.0 1.0 0.01 0.52 0.00 92 1018.6
20260504223151 49 246 0.0 3.0 0.01 0.52 0.00 92 1018.6
20260504223147 49 246 0.0 3.0 0.01 0.52 0.00 92 1018.5
20260504222650 49 246 0.0 5.0 0.01 0.52 0.00 92 1018.7
20260504222147 49 246 1.0 5.0 0.02 0.52 0.00 92 1018.6
20260504221646 49 242 2.0 6.0 0.02 0.52 0.00 92 1018.9
20260504221401 49 242 2.0 6.0 0.02 0.52 0.00 92 1018.9
20260504220646 49 244 2.0 6.0 0.03 0.52 0.00 92 1019.0
20260504220401 49 246 2.0 6.0 0.05 0.52 0.00 91 1019.3
20260504215646 49 247 2.0 4.0 0.06 0.52 0.52 91 1019.3
20260504215145 49 247 1.0 3.0 0.06 0.52 0.52 91 1019.5
20260504214646 49 246 1.0 3.0 0.06 0.52 0.52 91 1019.6
20260504214145 49 242 1.0 3.0 0.06 0.52 0.52 91 1019.7
20260504213917 49 238 0.0 2.0 0.06 0.51 0.51 91 1019.7
20260504213144 49 238 0.0 2.0 0.06 0.51 0.51 91 1019.7
20260504212642 49 240 0.0 2.0 0.06 0.51 0.51 91 1019.8
20260504212143 49 243 0.0 2.0 0.06 0.50 0.50 91 1019.9
20260504211641 49 246 0.0 3.0 0.06 0.50 0.50 91 1019.9
20260504211144 49 244 0.0 5.0 0.06 0.50 0.50 91 1020.0
20260504210641 49 242 1.0 5.0 0.06 0.49 0.49 91 1020.0
20260504210357 49 243 2.0 5.0 0.06 0.47 0.47 91 1019.9
20260504205641 49 244 2.0 5.0 0.07 0.46 0.46 91 1019.9
20260504205140 49 244 2.0 4.0 0.08 0.46 0.46 91 1019.9
20260504204915 49 242 2.0 4.0 0.09 0.46 0.46 91 1019.9
20260504204422 49 240 1.0 3.0 0.11 0.46 0.46 91 1020.0
20260504204140 49 240 1.0 3.0 0.11 0.46 0.46 91 1020.0
20260504203651 49 239 0.0 2.0 0.12 0.45 0.45 91 1020.1
20260504203645 49 240 0.0 2.0 0.12 0.46 0.46 91 1020.0
20260504203355 49 239 0.0 2.0 0.12 0.45 0.45 91 1020.1
20260504202641 49 237 0.0 1.0 0.13 0.45 0.45 91 1020.1
20260504202139 49 237 0.0 1.0 0.13 0.45 0.45 91 1020.1
20260504201640 49 236 0.0 1.0 0.13 0.44 0.44 90 1020.0
20260504201417 49 237 0.0 2.0 0.13 0.44 0.44 91 1020.1
20260504201139 49 237 0.0 2.0 0.13 0.44 0.44 91 1020.0
20260504200640 49 237 0.0 2.0 0.12 0.43 0.43 91 1020.1
20260504200138 49 237 0.0 2.0 0.11 0.42 0.42 91 1020.1
20260504195636 49 237 0.0 2.0 0.09 0.39 0.40 91 1020.1
20260504195136 50 237 0.0 1.0 0.09 0.39 0.39 91 1020.0
20260504194636 50 237 0.0 1.0 0.07 0.37 0.37 91 1019.9
20260504194137 50 237 0.0 1.0 0.05 0.35 0.35 91 1020.0
20260504193908 50 237 0.0 0.0 0.05 0.34 0.34 91 1019.9
20260504193139 50 237 0.0 1.0 0.04 0.33 0.33 91 1019.8
20260504192637 50 237 0.0 1.0 0.04 0.32 0.32 90 1019.6
20260504192138 50 237 0.0 1.0 0.04 0.31 0.31 90 1019.6
20260504191636 50 238 0.0 3.0 0.04 0.31 0.31 90 1019.6
20260504191137 50 237 0.0 3.0 0.06 0.31 0.31 90 1019.6
20260504190636 50 239 1.0 3.0 0.07 0.31 0.31 90 1019.5
20260504190348 50 241 1.0 3.0 0.08 0.31 0.31 90 1019.6
20260504185909 50 241 1.0 2.0 0.09 0.31 0.31 90 1019.5
20260504185137 50 239 1.0 2.0 0.09 0.30 0.30 90 1019.4
20260504184636 50 239 0.0 2.0 0.10 0.30 0.30 90 1019.4
20260504184137 50 239 0.0 2.0 0.11 0.30 0.30 89 1019.5
20260504183635 50 239 0.0 2.0 0.11 0.29 0.30 89 1019.6
20260504183134 51 239 0.0 2.0 0.12 0.29 0.29 89 1019.6
20260504182631 50 239 0.0 2.0 0.12 0.28 0.28 88 1019.6
20260504182138 50 240 0.0 2.0 0.12 0.28 0.28 89 1019.6
20260504182132 50 240 0.0 2.0 0.12 0.28 0.28 89 1019.7
20260504181631 51 241 0.0 2.0 0.13 0.27 0.27 88 1019.7
20260504181137 51 241 0.0 3.0 0.12 0.25 0.25 88 1019.7
20260504181131 51 241 0.0 3.0 0.12 0.25 0.25 88 1019.8
20260504180629 51 241 0.0 3.0 0.12 0.24 0.24 88 1019.7
20260504180130 51 241 0.0 4.0 0.13 0.23 0.23 88 1019.7
20260504175629 51 241 1.0 4.0 0.13 0.22 0.22 88 1019.8
20260504175130 51 241 1.0 4.0 0.13 0.21 0.21 88 1019.7
20260504174630 51 242 1.0 4.0 0.13 0.20 0.20 88 1019.7
20260504174128 51 242 1.0 4.0 0.13 0.19 0.19 87 1019.7
20260504173627 51 241 1.0 3.0 0.12 0.18 0.18 88 1019.7
20260504173127 51 241 1.0 3.0 0.12 0.17 0.17 87 1019.5
20260504172626 51 241 1.0 3.0 0.11 0.17 0.17 87 1019.5
20260504172130 52 240 1.0 3.0 0.10 0.16 0.16 87 1019.7
20260504171857 52 239 0.0 3.0 0.09 0.14 0.15 88 1019.7
20260504171125 52 238 0.0 3.0 0.09 0.13 0.13 88 1019.7
20260504170625 52 239 1.0 3.0 0.07 0.12 0.12 87 1019.7
20260504170134 52 239 1.0 3.0 0.06 0.10 0.10 86 1019.7
20260504170126 52 239 1.0 3.0 0.06 0.10 0.10 86 1019.6
20260504160133 53 239 1.0 3.0 0.00 0.05 0.05 85 1019.3
20260504160116 53 238 1.0 3.0 0.00 0.05 0.05 85 1019.2
20260504151116 54 228 0.0 2.0 0.02 0.05 0.05 85 1019.2
20260504150616 54 233 0.0 2.0 0.02 0.05 0.05 86 1019.2
20260504150358 54 237 0.0 2.0 0.02 0.05 0.05 85 1019.2
20260504150337 54 237 0.0 2.0 0.02 0.05 0.05 85 1019.3
20260504141130 55 236 1.0 4.0 0.02 0.03 0.03 85 1019.5
20260504141115 55 236 1.0 4.0 0.02 0.03 0.03 85 1019.4
20260504140616 55 235 1.0 4.0 0.02 0.03 0.03 85 1019.5
20260504140115 55 234 0.0 2.0 0.02 0.03 0.03 86 1019.6
20260504130611 55 222 0.0 1.0 0.01 0.02 0.02 77 1019.8
20260504130113 55 222 0.0 1.0 0.01 0.02 0.02 78 1020.0
20260504120126 56 187 0.0 4.0 0.00 0.01 0.01 77 1020.1
20260504110556 56 193 1.0 2.0 0.01 0.01 0.01 77 1020.0
20260504110127 56 194 1.0 2.0 0.01 0.01 0.01 76 1020.0
20260504100551 56 202 0.0 1.0 0.00 0.00 0.00 73 1020.0
20260504100125 56 202 0.0 2.0 0.00 0.00 0.00 72 1020.1
20260504090122 56 188 1.0 4.0 0.00 0.00 0.00 78 1019.7
20260504081536 56 176 0.0 3.0 0.00 0.00 0.00 79 1019.4
20260504081123 56 175 0.0 2.0 0.00 0.00 0.00 80 1019.3
20260504081036 55 174 0.0 2.0 0.00 0.00 0.00 80 1019.3
20260504080554 55 174 1.0 4.0 0.00 0.00 0.00 80 1019.2
20260504080543 55 172 1.0 3.0 0.00 0.00 0.00 81 1019.2
20260504080252 55 174 1.0 3.0 0.00 0.00 0.00 80 1019.2
20260504070313 56 223 0.0 1.0 0.00 0.00 0.00 76 1018.7
20260504070255 56 223 0.0 1.0 0.00 0.00 0.00 76 1018.7
20260504060117 55 223 0.0 1.0 0.00 0.00 0.00 77 1018.4
20260504050525 54 222 0.0 0.0 0.00 0.00 0.00 78 1018.3
20260504050118 54 222 0.0 0.0 0.00 0.00 0.00 78 1018.3
20260504050022 54 222 0.0 0.0 0.00 0.00 0.00 78 1018.3
20260504045530 55 222 0.0 0.0 0.00 0.00 0.00 77 1018.3
20260504045525 54 222 0.0 0.0 0.00 0.00 0.00 78 1018.2
20260504045242 55 222 0.0 0.0 0.00 0.00 0.00 77 1018.3
20260504044517 54 222 0.0 0.0 0.00 0.00 0.00 77 1018.2
20260504044116 54 222 0.0 0.0 0.00 0.00 0.00 77 1018.1
20260504044018 54 222 0.0 0.0 0.00 0.00 0.00 77 1018.1
20260504043747 54 222 0.0 0.0 0.00 0.00 0.00 77 1018.1
20260504043117 54 222 0.0 0.0 0.00 0.00 0.00 77 1018.1
20260504043016 54 222 0.0 0.0 0.00 0.00 0.00 77 1018.0
20260504042518 54 222 0.0 1.0 0.00 0.00 0.00 77 1018.0
20260504042117 54 222 0.0 1.0 0.00 0.00 0.00 76 1018.0
20260504042016 54 222 0.0 1.0 0.00 0.00 0.00 76 1017.9
20260504041515 54 222 0.0 1.0 0.00 0.00 0.00 77 1018.0
20260504041116 54 222 0.0 1.0 0.00 0.00 0.00 77 1018.0
20260504041015 54 222 0.0 1.0 0.00 0.00 0.00 77 1018.0
20260504040516 54 222 0.0 1.0 0.00 0.00 0.00 77 1018.1
20260504040117 54 222 0.0 1.0 0.00 0.00 0.00 77 1018.1
20260504040018 54 222 0.0 1.0 0.00 0.00 0.00 77 1018.2